星链-5612 (STARLINK-5612 )

导读

STARLINK-5612是美国太空探索技术公司 SpaceX 星链星座的成员卫星,由美国于2023年3月3日发射。该卫星属于星链第二代组网卫星,旨在为全球提供低延迟、高速率的卫星互联网服务,尤其覆盖偏远地区与网络基础设施匮乏区域,目前已正常在轨运行,支撑星链星座的服务能力拓展。

基本信息
目录编号:
55754
目录名称:
STARLINK-5612
国际标识:
2023-028P
轨道中心:
EARTH
卫星名称:
星链-5612
卫星全名:
星链-5612 (STARLINK-5612 )
卫星状态:
在轨 (已飞行1289 天)
发射日期:
2023-03-03 UTC
国别 :
美国 (US)
星等 :
--
该卫星已列入 空间交会检测服务 Space Conjunction Data Service (SCDS) ,当前飞行风险评估等级: 无高风险
轨道信息
数据来源 国际轨道数据
星历时间: 2026-09-12T10:13:21+0800
11小时前
查看轨道信息
半长轴: 6950.185km
偏心率: 0.0002807
轨道倾角: 70.000°
近地点辐角 270.294°
升交点赤经 134.385°
平近点角 89.790°
近地点: 570.097km
远地点: 573.999km
周期: 96.107分钟
每日圈数: 14.983328
详细信息
固有亮度:
5
最大亮度:
2.5
卫星平台:
Starlink v1.5
覆盖范围:
全球
运营商:
太空探索技术公司
运营商所在国:
美国
制造商(研发单位):
太空探索技术公司
制造商所在国:
美国
使用方式:
暂无
卫星简介
星链(Starlink)计划是由太空探索技术公司(SpaceX)提出的一个巨型低轨卫星互联网星座项目,计划在2019年至2024年间在太空搭建由约1.2万颗卫星组成的“星链”网络,其中1584颗将部署在地球上空550千米处的近地轨道,并从2020年开始工作。该卫星仍在工作。
2D轨道图
3D轨道图
轨道高度分析图
轨道倾角分析图
轨道综合分析图
查看轨道综合分析图
交会数据列表
事件ID 空间交会对象 最接近时刻(TCA) 交会距离 交会风险概率(CRP) 交会风险指数(CRI) 操作
CDM_260912-085304-488905-575429
OBJECT L (44889)
2026-09-12T
08:53:35+0000
0.695 km
远距离
8.792057E-5 中风险 0.74
CDM_260913-183905-551905-575421
2026-09-13T
18:39:44+0000
1.893 km
极远距离
3.115596E-6 低风险 0.45
CDM_260906-112800-507605-575423
2026-09-06T
11:28:52+0000
2.628 km
极远距离
1.537533E-6 低风险 0.39
与全量物体交会距离演化趋势
与全量物体交会风险概率演化趋势